Theta_e
321 321 321 321 320 320 321 321 321 322 322 323 323 324 325 324 322 315 307 318 321 342 337 330 329 329 327 322 324 320 307 303 305 306 308 311 311 316 319 323 323 327 325 327 331
320 320 320 320 320 320 320 320 320 321 321 322 322 323 324 324 313 310 324 339 345 344 320 316 316 324 318 317 317 311 304 305 310 311 309 312 314 316 317 318 323 324 327 327 330
320 320 320 319 319 319 319 319 320 321 321 321 322 323 324 321 310 314 345 345 346 340 319 318 317 322 315 315 315 309 306 308 312 315 313 317 320 322 318 316 323 322 323 324 318
320 320 320 319 319 318 318 319 319 321 321 321 321 322 324 314 304 316 347 346 346 327 321 316 318 313 308 309 316 309 313 314 314 317 320 321 325 323 323 324 329 328 326 324 318
319 320 319 318 318 318 318 318 318 319 319 320 321 323 314 305 310 324 347 347 328 319 315 316 314 311 308 310 313 310 313 316 317 322 322 324 321 324 324 329 329 328 326 322 321
318 318 318 318 317 317 317 317 317 317 318 320 321 323 313 304 316 332 325 324 320 317 317 315 314 313 310 311 310 314 313 313 318 318 321 320 320 323 327 333 328 326 322 322 322
318 318 317 317 317 317 316 316 315 317 319 320 323 322 310 311 320 326 322 317 318 320 316 318 316 312 311 311 316 315 311 315 315 318 317 320 316 318 328 332 328 328 327 326 324
318 317 317 317 316 316 316 316 316 318 321 322 325 314 303 314 317 315 315 318 322 321 319 321 315 309 308 313 311 311 310 305 312 317 319 315 308 323 328 328 325 326 327 327 328
317 316 316 316 316 316 315 315 318 322 324 324 314 307 305 320 317 319 319 319 320 320 318 321 313 308 309 304 301 304 301 305 310 319 319 315 310 322 325 324 321 322 324 327 327
317 316 315 315 315 315 313 315 319 320 321 322 318 307 311 312 317 319 320 321 317 316 315 313 308 304 301 300 295 299 302 304 306 315 316 312 313 318 324 325 324 325 326 323 322
317 316 315 314 314 313 310 304 302 303 304 302 305 309 311 316 317 315 318 318 316 312 305 308 303 300 303 303 304 305 304 305 309 316 313 311 312 316 317 323 321 319 323 323 322
317 316 315 314 313 312 306 304 304 304 299 307 307 308 312 313 310 313 317 313 312 306 308 305 300 306 307 307 307 307 306 306 311 314 312 312 310 314 314 317 319 319 323 322 323
315 315 314 313 312 306 303 306 305 303 298 305 308 308 310 311 309 311 313 311 308 304 303 301 306 310 308 305 304 303 304 307 306 311 312 310 308 309 315 319 320 322 323 322 321
314 314 314 311 303 301 302 307 305 306 297 302 304 309 310 310 309 316 315 311 308 305 305 304 308 307 305 304 303 297 307 310 309 303 299 308 296 307 312 314 317 319 319 320 320
314 314 313 311 300 300 304 304 307 309 290 306 305 310 308 309 309 313 318 312 306 305 305 304 304 305 304 305 306 302 311 309 308 304 301 304 299 304 311 309 315 317 318 318 321
313 313 312 305 300 304 306 305 307 299 293 302 305 304 303 304 307 310 311 314 312 305 304 305 309 309 306 309 307 312 308 304 302 299 294 300 300 300 305 311 316 318 319 320 320
313 312 309 308 299 303 306 307 298 296 308 300 299 301 300 301 304 306 306 303 301 297 297 303 303 307 310 307 307 306 299 293 292 293 293 302 300 301 308 315 316 315 318 321 321
311 309 306 308 303 307 307 304 295 305 305 308 301 300 299 302 302 304 304 301 304 302 298 297 297 304 311 308 304 303 298 294 289 290 294 303 297 303 313 316 320 321 321 322 320
308 302 302 305 308 306 304 295 299 305 309 306 301 296 296 299 302 301 301 301 305 305 299 297 299 307 312 312 310 305 300 302 297 295 293 297 304 309 314 315 317 317 318 320 320
300 302 304 310 310 305 297 295 302 311 309 307 302 302 297 297 298 298 299 305 306 307 305 302 296 305 310 310 309 305 307 296 295 291 290 296 298 300 307 310 314 316 317 318 319
300 298 304 310 308 300 289 294 303 309 310 307 304 303 304 303 298 297 300 305 309 308 307 302 299 300 306 302 302 302 300 301 298 296 292 292 297 307 307 309 312 313 314 316 316
295 292 306 308 300 295 293 300 305 309 313 310 307 307 308 308 303 298 300 304 311 309 304 303 299 296 301 309 310 307 304 300 294 294 296 296 297 310 312 314 315 315 315 315 317
291 294 308 307 295 293 298 303 307 307 310 308 308 312 311 307 302 306 305 315 316 311 307 306 300 297 298 302 306 304 306 303 299 297 296 294 298 314 313 314 314 313 315 314 315
294 295 303 303 300 298 298 302 303 310 309 311 308 311 309 309 310 308 310 315 317 316 320 313 303 299 295 300 303 302 305 304 299 294 298 299 301 307 310 312 315 315 313 313 315
296 295 301 296 300 300 302 304 304 305 309 309 307 310 308 304 306 307 312 310 314 315 312 309 303 303 304 308 307 304 304 305 303 302 302 304 304 307 308 311 314 316 316 318 318
297 299 301 299 300 300 299 300 304 308 306 305 305 312 311 306 307 305 310 306 305 309 306 307 301 302 301 309 306 305 308 307 306 307 307 307 306 311 313 314 314 315 317 315 317
301 300 301 299 299 298 299 302 305 309 311 309 310 312 311 314 315 311 311 310 309 307 305 307 304 300 296 306 304 299 306 306 310 314 309 305 307 312 313 313 312 314 315 315 317
Wind_Speed
17 18 19 18 19 19 19 18 17 16 16 15 14 12 11 11 8 2 5 10 6 11 4 7 4 4 2 3 4 4 4 2 5 5 7 5 3 4 1 7 2 5 6 5 14
16 17 19 19 19 19 19 19 18 16 15 15 14 13 11 10 2 4 12 4 10 12 3 3 1 7 3 2 1 4 2 6 4 2 5 4 2 3 4 6 5 4 6 14 16
21 17 19 21 20 20 19 19 18 18 16 15 14 12 10 6 4 6 7 10 10 8 3 1 2 4 3 2 5 5 5 5 3 0 4 9 14 12 7 6 2 5 6 11 12
21 23 19 21 21 21 20 20 19 17 16 15 14 12 11 2 2 4 10 10 7 4 2 2 4 4 3 3 3 4 4 3 3 6 11 17 18 6 1 8 4 7 8 9 11
21 22 23 21 23 23 22 20 20 17 15 14 13 10 4 1 9 2 10 8 6 4 3 2 5 3 5 3 3 2 3 4 7 15 12 16 6 7 3 9 3 5 7 10 13
21 22 24 24 24 24 23 21 19 17 15 12 11 7 0 2 2 8 8 4 3 4 3 4 7 5 4 4 2 3 4 4 9 5 5 11 2 6 2 7 3 2 5 6 5
23 23 24 25 25 25 24 23 20 17 15 11 8 2 1 12 3 7 9 5 3 4 3 5 7 5 2 5 4 4 6 5 4 1 7 13 6 1 4 5 2 1 3 2 5
23 24 25 26 27 27 27 25 21 16 10 5 4 1 7 4 4 4 3 6 5 6 4 10 6 4 4 1 6 5 6 4 3 4 2 3 5 10 6 1 6 5 5 5 2
23 24 25 27 28 29 31 25 15 4 4 7 3 2 8 5 2 5 8 7 1 4 6 4 4 2 6 4 6 7 3 2 7 9 4 4 4 4 3 4 3 4 6 7 7
24 25 27 28 29 29 32 16 2 6 2 2 2 3 4 3 6 6 6 6 3 2 7 9 7 2 4 5 3 4 4 1 2 5 6 6 6 5 1 5 4 6 8 8 8
25 26 28 29 30 27 16 5 9 7 4 5 3 3 4 7 5 4 6 3 4 8 3 3 7 6 8 6 7 3 4 6 2 1 6 5 2 7 11 9 10 8 8 8 9
24 26 28 30 31 25 3 7 6 7 9 7 7 5 6 2 4 7 1 2 3 2 2 7 2 4 8 5 4 3 9 3 2 1 5 5 4 5 7 4 6 8 7 8 8
23 24 26 32 34 4 3 3 2 1 1 9 6 5 6 8 6 6 2 2 1 2 2 3 8 5 4 7 6 1 5 7 7 4 5 5 5 7 3 3 7 8 7 7 7
24 22 23 32 5 6 7 5 4 1 4 6 4 7 4 5 3 5 5 5 1 4 3 4 4 3 6 3 4 2 5 7 14 4 4 3 3 4 4 8 6 10 5 6 7
24 22 19 7 5 4 7 10 9 5 3 1 3 1 3 7 3 1 2 3 6 5 5 6 6 8 6 6 2 5 8 7 5 5 6 1 5 8 2 7 11 8 4 4 8
25 23 18 2 2 9 11 10 3 6 1 1 5 5 4 1 1 3 3 5 2 3 3 6 3 3 6 7 2 11 8 6 4 4 5 4 4 7 3 6 7 6 7 6 9
27 28 13 3 6 3 5 4 5 4 4 2 4 4 2 3 2 2 1 4 2 4 5 7 4 5 2 6 8 10 6 3 4 6 4 4 2 9 6 9 7 7 9 7 6
29 30 6 7 2 5 4 5 4 2 2 5 4 4 5 5 4 2 2 2 2 5 2 1 8 1 5 2 2 2 2 7 5 5 5 3 4 8 5 6 7 6 8 10 9
27 4 4 4 5 3 6 4 5 2 4 7 3 5 2 3 2 4 5 6 7 8 8 4 6 5 3 1 3 1 3 4 8 3 4 3 6 11 5 9 8 10 8 13 8
5 5 5 3 5 6 6 4 4 4 4 5 2 3 4 4 5 5 5 5 6 11 6 5 2 3 5 1 4 2 4 3 4 4 2 4 5 7 6 10 9 10 10 12 5
3 5 4 4 4 7 2 6 6 5 4 1 1 3 4 3 7 6 6 5 4 4 7 6 4 6 3 3 2 3 3 7 5 4 6 2 8 7 8 7 9 9 9 8 7
3 3 3 2 5 1 1 4 7 6 2 4 4 3 1 2 1 6 10 6 0 6 8 5 6 1 1 7 2 3 5 6 6 3 2 4 8 4 5 3 5 11 10 7 8
2 4 5 4 1 3 6 6 4 4 5 6 3 1 2 3 1 2 4 2 7 3 6 6 3 3 9 8 6 3 1 4 5 4 3 6 7 5 5 8 7 9 10 3 7
2 4 6 5 1 3 3 6 6 5 5 5 5 0 3 5 6 2 3 5 5 4 6 9 3 7 7 7 3 3 6 4 5 4 6 5 3 4 6 5 9 11 7 4 6
2 2 2 4 3 4 2 3 5 6 3 7 7 3 4 2 2 3 1 3 6 9 5 6 4 1 2 1 2 3 1 5 4 4 5 4 2 4 4 4 5 6 7 7 6
2 2 5 3 4 4 2 2 4 7 3 7 3 7 3 4 2 5 3 2 2 5 4 4 3 3 2 3 4 3 4 1 2 3 6 7 2 2 4 3 2 5 4 5 5
2 2 4 3 4 2 2 6 7 7 6 5 7 3 4 3 4 3 5 5 2 2 2 3 4 3 2 3 4 3 5 2 2 2 7 5 4 1 1 0 2 2 4 6 7
Wind_Direction
352 349 347 346 341 339 335 333 332 334 329 325 328 325 323 323 306 164 254 216 134 139 162 136 151 172 102 200 207 116 60 234 250 176 237 166 149 178 229 132 139 174 152 200 125
355 350 343 344 340 335 330 327 327 328 326 322 324 322 319 328 317 257 252 102 112 159 133 197 201 129 171 228 151 103 99 235 223 277 240 185 25 185 46 25 24 38 54 101 129
347 354 346 341 338 331 327 323 322 322 322 317 317 317 312 318 344 255 79 112 152 181 160 201 205 161 114 270 180 179 182 234 348 354 92 60 27 352 60 334 209 179 142 130 139
344 342 351 338 334 327 323 319 316 317 316 312 312 314 317 253 221 268 111 129 160 139 338 321 350 18 356 153 257 158 230 261 105 30 86 96 86 41 320 308 229 184 158 142 156
346 339 340 340 330 325 319 314 314 310 305 303 305 316 321 25 250 226 113 133 135 127 223 161 347 349 338 316 265 211 30 44 66 94 103 91 71 127 300 348 216 176 191 179 174
343 339 338 335 327 321 317 312 308 301 293 293 294 307 326 244 220 147 135 149 176 165 171 151 183 221 287 274 122 326 29 77 82 48 93 112 224 148 349 292 96 241 270 285 233
342 338 335 330 324 320 317 311 305 292 288 284 276 251 95 234 21 153 160 208 185 197 242 202 169 195 186 274 172 70 118 91 347 332 129 108 41 25 261 320 131 31 275 262 258
337 335 334 330 324 321 319 313 305 294 286 259 227 192 242 259 110 148 160 292 209 232 239 267 160 183 192 226 5 69 38 45 201 317 335 159 235 220 246 191 76 21 326 289 246
338 333 333 328 324 324 322 318 309 351 84 144 124 131 266 319 255 253 153 229 241 211 223 250 107 77 7 55 3 1 155 284 324 22 0 68 260 91 315 171 176 289 316 327 306
337 335 330 329 326 327 320 305 247 101 113 222 277 49 292 268 276 304 214 202 254 8 1 25 44 44 91 87 242 246 151 203 189 322 25 36 358 347 224 36 1 353 345 345 315
335 334 330 328 325 330 336 23 14 352 39 221 201 250 273 292 277 277 290 138 88 55 19 342 44 352 297 245 201 234 123 110 287 345 56 357 90 322 329 348 343 341 328 329 305
335 332 329 328 323 324 306 81 125 241 303 252 243 261 260 267 316 301 53 126 70 276 0 6 322 258 276 27 84 114 111 114 5 64 87 339 336 277 13 312 288 300 313 313 305
332 331 330 327 320 360 297 208 85 324 202 293 216 194 224 147 211 263 113 136 202 289 74 159 260 314 36 349 70 266 153 182 150 119 66 134 311 348 341 329 295 297 266 283 296
327 331 333 326 36 324 296 321 341 237 49 273 239 256 184 189 266 216 195 152 342 232 193 235 287 326 342 280 147 305 201 148 137 109 168 171 252 296 282 312 288 262 274 354 337
323 325 330 329 288 321 273 338 329 65 30 187 191 348 142 156 188 226 154 84 209 203 104 262 305 328 333 259 167 209 94 104 167 111 103 347 75 272 23 277 277 281 329 359 332
320 318 334 147 240 247 316 310 50 44 17 217 154 181 126 169 250 330 49 47 123 133 356 232 252 229 232 285 247 144 88 75 53 80 57 302 116 283 277 245 288 306 302 357 345
319 313 315 234 238 320 317 26 37 105 333 288 197 162 129 153 258 106 4 337 137 40 346 326 295 289 266 355 76 39 74 9 1 27 219 279 78 240 249 244 242 278 310 324 317
320 313 216 219 241 10 17 50 59 278 310 300 150 70 165 168 232 178 136 259 164 93 94 205 335 5 322 182 225 76 170 149 210 165 211 330 238 252 269 293 284 292 288 289 274
321 313 279 267 185 118 63 62 212 242 336 320 32 84 297 247 212 144 203 218 214 166 169 169 271 305 226 186 140 258 44 162 107 37 82 261 285 311 220 292 286 282 280 269 251
326 333 284 295 150 64 66 248 251 235 337 330 93 180 205 225 158 152 199 229 220 184 154 210 296 246 289 75 30 119 139 60 23 139 156 292 267 243 299 277 286 276 272 275 279
14 2 276 59 69 46 131 250 284 241 313 227 306 295 228 226 193 184 211 279 222 151 153 137 114 290 11 2 239 352 26 48 109 112 145 172 266 216 239 262 281 285 281 283 289
356 355 299 16 45 35 250 226 288 304 291 273 214 234 291 266 305 225 200 236 169 165 167 170 146 171 249 308 252 155 168 143 114 213 122 145 273 262 241 228 278 280 288 300 298
20 271 310 71 117 315 297 286 270 309 331 320 281 120 30 330 107 199 162 32 2 89 144 184 29 38 350 348 352 23 338 101 107 95 186 135 261 331 329 320 311 286 308 292 301
51 355 321 38 54 137 348 280 310 265 258 306 284 283 94 10 9 62 53 11 354 76 80 85 99 152 171 212 207 1 326 161 125 116 176 213 263 333 1 353 335 355 6 19 14
43 281 171 313 351 343 337 277 301 325 340 2 352 8 249 93 46 19 19 3 25 347 44 94 134 195 169 278 103 128 332 337 130 169 130 191 101 332 7 40 327 321 3 20 2
104 37 348 290 309 337 26 337 310 323 294 306 297 317 331 111 179 200 164 124 202 2 63 5 174 180 182 356 157 94 313 46 46 107 79 112 91 347 7 358 354 13 6 358 329
324 337 110 299 344 55 16 318 291 337 278 236 291 107 30 344 217 206 107 68 111 107 129 81 111 76 272 331 86 333 248 257 274 83 135 141 194 127 14 207 12 344 354 331 328